This demonstration page uses our WeatherBlox Daily Observations layout. Learn more.

Left ArrowRight Arrow

38.80484, -77.04692

Hourly Observations for December 5, 2022

Temp ( °F °C ) Dew Point ( °F °C ) Humidity (%) Winds ( mph kmh ) Pressure ( in mb ) Visibility ( mi km ) Precip ( " mm )
12:52 am 00:52 Mostly Clear 33 0.6 28 -2.2 81 81 Calm 30.22 1023 10 16 0.00 0.00
1:52 am 01:52 Mostly Clear 33 0.6 27 -2.8 78 78 Calm 30.21 1023 10 16 0.00 0.00
2:52 am 02:52 Mostly Clear 32 0 27 -2.8 81 81 Calm 30.22 1023 10 16 0.00 0.00
3:52 am 03:52 Clear 31 -0.6 25 -3.9 78 78 WSW 3 6 30.22 1023 10 16 0.00 0.00
4:52 am 04:52 Clear 32 0 26 -3.3 78 78 S 3 6 30.24 1024 10 16 0.00 0.00
5:52 am 05:52 Clear 32 0 28 -2.2 85 85 Calm 30.24 1024 10 16 0.00 0.00
6:52 am 06:52 Mostly Cloudy 32 0 27 -2.8 81 81 Calm 30.26 1025 10 16 0.00 0.00
7:52 am 07:52 Mostly Cloudy 35 1.7 29 -1.7 78 78 Calm 30.27 1025 10 16 0.00 0.00
8:52 am 08:52 Mostly Cloudy 38 3.3 32 0 79 79 Calm 30.29 1026 9 14 0.00 0.00
9:52 am 09:52 Mostly Cloudy 39 3.9 33 0.6 79 79 S 3 6 30.29 1026 10 16 0.00 0.00
10:52 am 10:52 Mostly Cloudy 42 5.6 33 0.6 70 70 S 7 11 30.29 1026 10 16 0.00 0.00
11:52 am 11:52 Mostly Cloudy 46 7.8 32 0 58 58 S 8 13 30.27 1025 10 16 0.00 0.00
12:52 pm 12:52 Mostly Cloudy 49 9.4 30 -1.1 48 48 SSW 9 15 30.24 1024 10 16 0.00 0.00
1:52 pm 13:52 Partly Cloudy 50 10 29 -1.7 44 44 S 8 13 30.23 1024 10 16 0.00 0.00
2:52 pm 14:52 Partly Cloudy 50 10 27 -2.8 40 40 S 10 17 30.23 1024 10 16 0.00 0.00
3:52 pm 15:52 Mostly Cloudy 48 8.9 22 -5.6 35 35 S 10 17 30.24 1024 10 16 0.00 0.00
4:52 pm 16:52 Mostly Cloudy 45 7.2 26 -3.3 47 47 S 8 13 30.24 1024 10 16 0.00 0.00
5:52 pm 17:52 Partly Cloudy 45 7.2 26 -3.3 47 47 ESE 5 7 30.25 1024 10 16 0.00 0.00
6:52 pm 18:52 Partly Cloudy 44 6.7 26 -3.3 49 49 Calm 30.25 1024 10 16 0.00 0.00
7:52 pm 19:52 Partly Cloudy 43 6.1 29 -1.7 57 57 S 5 7 30.26 1025 10 16 0.00 0.00
8:52 pm 20:52 Partly Cloudy 41 5 30 -1.1 65 65 SSE 3 6 30.27 1025 10 16 0.00 0.00
9:52 pm 21:52 Partly Cloudy 41 5 32 0 70 70 Calm 30.26 1025 10 16 0.00 0.00
10:52 pm 22:52 Partly Cloudy 42 5.6 34 1.1 73 73 Calm 30.26 1025 10 16 0.00 0.00
11:52 pm 23:52 Mostly Cloudy 39 3.9 33 0.6 79 79 Calm 30.25 1024 10 16 0.00 0.00

Powered by AerisWeather